Time,TemperatureF,DewpointF,PressureIn,WindDirection,WindDirectionDegrees,WindSpeedMPH,WindSpeedGustMPH,Humidity,HourlyPrecipIn,Conditions,Clouds,dailyrainin,SoftwareType,DateUTC
2013-02-08 00:07:00,22.3,21.0,30.05,NE,36,4.0,9.0,95,0.00,,,0.00,weatherlink.com 1.10,2013-02-08 06:07:00,
2013-02-08 00:22:00,22.1,21.0,30.06,East,84,2.0,7.0,95,0.00,,,0.00,weatherlink.com 1.10,2013-02-08 06:22:00,
2013-02-08 00:37:00,21.9,21.0,30.07,NNE,20,4.0,6.0,95,0.00,,,0.00,weatherlink.com 1.10,2013-02-08 06:37:00,
2013-02-08 00:52:00,21.7,21.0,30.07,NE,44,4.0,8.0,95,0.00,,,0.00,weatherlink.com 1.10,2013-02-08 06:52:00,
2013-02-08 01:07:00,21.6,20.0,30.08,ESE,105,2.0,10.0,94,0.00,,,0.00,weatherlink.com 1.10,2013-02-08 07:07:00,
2013-02-08 01:23:00,21.4,20.0,30.09,NNE,22,3.0,8.0,94,0.00,,,0.00,weatherlink.com 1.10,2013-02-08 07:23:00,
2013-02-08 01:37:00,21.3,20.0,30.10,NNE,32,4.0,8.0,94,0.00,,,0.00,weatherlink.com 1.10,2013-02-08 07:37:00,
2013-02-08 01:52:00,21.2,20.0,30.10,NNE,19,5.0,9.0,94,0.00,,,0.00,weatherlink.com 1.10,2013-02-08 07:52:00,
2013-02-08 02:07:00,21.2,20.0,30.12,NE,44,4.0,10.0,94,0.00,,,0.00,weatherlink.com 1.10,2013-02-08 08:07:00,
2013-02-08 02:23:00,21.2,20.0,30.12,NE,50,2.0,9.0,94,0.00,,,0.00,weatherlink.com 1.10,2013-02-08 08:23:00,
2013-02-08 02:38:00,21.0,20.0,30.13,SW,236,1.0,8.0,94,0.00,,,0.00,weatherlink.com 1.10,2013-02-08 08:38:00,
2013-02-08 02:53:00,21.2,20.0,30.12,NNE,30,7.0,8.0,94,0.00,,,0.00,weatherlink.com 1.10,2013-02-08 08:53:00,
2013-02-08 03:08:00,21.8,20.0,30.13,NNW,344,1.0,9.0,94,0.00,,,0.00,weatherlink.com 1.10,2013-02-08 09:08:00,
2013-02-08 03:23:00,22.2,21.0,30.14,NW,320,1.0,10.0,94,0.00,,,0.00,weatherlink.com 1.10,2013-02-08 09:23:00,
2013-02-08 03:38:00,22.7,21.0,30.15,NNW,347,4.0,12.0,93,0.00,,,0.00,weatherlink.com 1.10,2013-02-08 09:38:00,
2013-02-08 03:53:00,22.9,21.0,30.16,NNE,17,3.0,8.0,93,0.00,,,0.00,weatherlink.com 1.10,2013-02-08 09:53:00,
2013-02-08 04:08:00,23.0,21.0,30.17,ENE,57,4.0,9.0,92,0.00,,,0.00,weatherlink.com 1.10,2013-02-08 10:08:00,
2013-02-08 04:23:00,23.1,21.0,30.16,NE,51,3.0,10.0,91,0.00,,,0.00,weatherlink.com 1.10,2013-02-08 10:23:00,
2013-02-08 04:38:00,23.2,21.0,30.18,NW,318,1.0,8.0,90,0.00,,,0.00,weatherlink.com 1.10,2013-02-08 10:38:00,
2013-02-08 04:53:00,23.4,21.0,30.18,ENE,58,6.0,9.0,90,0.00,,,0.00,weatherlink.com 1.10,2013-02-08 10:53:00,
2013-02-08 05:08:00,23.4,21.0,30.18,North,4,5.0,10.0,89,0.00,,,0.00,weatherlink.com 1.10,2013-02-08 11:08:00,
2013-02-08 05:23:00,23.4,20.0,30.19,NNE,30,3.0,9.0,88,0.00,,,0.00,weatherlink.com 1.10,2013-02-08 11:23:00,
2013-02-08 05:38:00,23.4,20.0,30.20,NNE,22,4.0,8.0,88,0.00,,,0.00,weatherlink.com 1.10,2013-02-08 11:38:00,
2013-02-08 05:53:00,23.3,20.0,30.21,WNW,300,1.0,8.0,88,0.00,,,0.00,weatherlink.com 1.10,2013-02-08 11:53:00,
2013-02-08 06:08:00,23.2,20.0,30.22,NE,42,2.0,6.0,88,0.00,,,0.00,weatherlink.com 1.10,2013-02-08 12:08:00,
2013-02-08 06:23:00,23.0,20.0,30.23,NNE,22,4.0,9.0,88,0.00,,,0.00,weatherlink.com 1.10,2013-02-08 12:23:00,
2013-02-08 06:38:00,22.9,20.0,30.24,WNW,300,2.0,11.0,88,0.00,,,0.00,weatherlink.com 1.10,2013-02-08 12:38:00,
2013-02-08 06:53:00,22.8,20.0,30.25,NE,39,1.0,7.0,87,0.00,,,0.00,weatherlink.com 1.10,2013-02-08 12:53:00,
2013-02-08 07:09:00,22.7,19.0,30.25,NNE,25,2.0,5.0,86,0.00,,,0.00,weatherlink.com 1.10,2013-02-08 13:09:00,
2013-02-08 07:23:00,22.5,19.0,30.25,NE,38,2.0,7.0,86,0.00,,,0.00,weatherlink.com 1.10,2013-02-08 13:23:00,
2013-02-08 07:39:00,22.4,19.0,30.26,ENE,65,3.0,5.0,86,0.00,,,0.00,weatherlink.com 1.10,2013-02-08 13:39:00,
2013-02-08 07:54:00,22.3,19.0,30.27,NW,307,4.0,9.0,86,0.00,,,0.00,weatherlink.com 1.10,2013-02-08 13:54:00,
2013-02-08 08:08:00,22.3,19.0,30.28,NNW,327,3.0,8.0,86,0.00,,,0.00,weatherlink.com 1.10,2013-02-08 14:08:00,
2013-02-08 08:24:00,22.5,19.0,30.29,NNE,26,7.0,7.0,85,0.00,,,0.00,weatherlink.com 1.10,2013-02-08 14:24:00,
2013-02-08 08:38:00,22.7,19.0,30.29,NNE,32,4.0,7.0,85,0.00,,,0.00,weatherlink.com 1.10,2013-02-08 14:38:00,
2013-02-08 08:53:00,22.8,19.0,30.31,NW,312,4.0,8.0,84,0.00,,,0.00,weatherlink.com 1.10,2013-02-08 14:53:00,
2013-02-08 09:09:00,22.8,19.0,30.31,NW,315,0.0,7.0,84,0.00,,,0.00,weatherlink.com 1.10,2013-02-08 15:09:00,
2013-02-08 09:23:00,22.9,19.0,30.31,NE,53,1.0,9.0,84,0.00,,,0.00,weatherlink.com 1.10,2013-02-08 15:23:00,
2013-02-08 09:39:00,23.1,19.0,30.32,NNW,328,3.0,8.0,84,0.00,,,0.00,weatherlink.com 1.10,2013-02-08 15:39:00,
2013-02-08 09:54:00,23.1,19.0,30.32,NNE,33,7.0,7.0,84,0.00,,,0.00,weatherlink.com 1.10,2013-02-08 15:54:00,
2013-02-08 10:09:00,22.9,19.0,30.34,North,351,3.0,11.0,84,0.00,,,0.00,weatherlink.com 1.10,2013-02-08 16:09:00,
2013-02-08 10:24:00,22.5,18.0,30.34,NW,321,3.0,9.0,84,0.00,,,0.00,weatherlink.com 1.10,2013-02-08 16:24:00,
2013-02-08 10:39:00,22.5,18.0,30.34,WNW,293,2.0,8.0,84,0.00,,,0.00,weatherlink.com 1.10,2013-02-08 16:39:00,
2013-02-08 10:54:00,22.3,18.0,30.35,NNE,18,7.0,9.0,83,0.00,,,0.00,weatherlink.com 1.10,2013-02-08 16:54:00,
2013-02-08 11:09:00,22.5,18.0,30.36,ESE,118,1.0,7.0,83,0.00,,,0.00,weatherlink.com 1.10,2013-02-08 17:09:00,
2013-02-08 11:24:00,22.7,18.0,30.36,NNE,13,2.0,12.0,83,0.00,,,0.00,weatherlink.com 1.10,2013-02-08 17:24:00,
2013-02-08 11:39:00,22.8,18.0,30.35,NE,54,3.0,6.0,83,0.00,,,0.00,weatherlink.com 1.10,2013-02-08 17:39:00,
2013-02-08 11:54:00,22.6,18.0,30.35,WNW,293,2.0,10.0,82,0.00,,,0.00,weatherlink.com 1.10,2013-02-08 17:54:00,
2013-02-08 12:09:00,22.8,18.0,30.35,ENE,60,2.0,8.0,82,0.00,,,0.00,weatherlink.com 1.10,2013-02-08 18:09:00,
2013-02-08 12:24:00,23.0,18.0,30.35,WNW,302,6.0,8.0,81,0.00,,,0.00,weatherlink.com 1.10,2013-02-08 18:24:00,
2013-02-08 12:39:00,23.0,19.0,30.35,NE,48,2.0,7.0,84,0.00,,,0.00,weatherlink.com 1.10,2013-02-08 18:39:00,
2013-02-08 12:54:00,23.5,19.0,30.35,NE,39,3.0,7.0,83,0.00,,,0.00,weatherlink.com 1.10,2013-02-08 18:54:00,
2013-02-08 13:09:00,23.9,20.0,30.36,NW,321,4.0,7.0,83,0.00,,,0.00,weatherlink.com 1.10,2013-02-08 19:09:00,
2013-02-08 13:24:00,24.3,20.0,30.35,ENE,58,3.0,5.0,82,0.00,,,0.00,weatherlink.com 1.10,2013-02-08 19:24:00,
2013-02-08 13:39:00,24.5,19.0,30.35,WNW,297,0.0,9.0,80,0.00,,,0.00,weatherlink.com 1.10,2013-02-08 19:39:00,
2013-02-08 13:54:00,23.8,19.0,30.35,NNE,23,3.0,9.0,82,0.00,,,0.00,weatherlink.com 1.10,2013-02-08 19:54:00,
2013-02-08 14:10:00,24.2,19.0,30.36,West,270,4.0,7.0,81,0.00,,,0.00,weatherlink.com 1.10,2013-02-08 20:10:00,
2013-02-08 14:24:00,23.6,19.0,30.35,WNW,284,5.0,10.0,81,0.00,,,0.00,weatherlink.com 1.10,2013-02-08 20:24:00,
2013-02-08 14:39:00,23.9,19.0,30.36,NE,34,2.0,7.0,82,0.00,,,0.00,weatherlink.com 1.10,2013-02-08 20:39:00,
2013-02-08 14:54:00,24.0,19.0,30.36,NNE,22,3.0,6.0,81,0.00,,,0.00,weatherlink.com 1.10,2013-02-08 20:54:00,
2013-02-08 15:09:00,24.0,19.0,30.36,NNE,23,4.0,5.0,81,0.00,,,0.00,weatherlink.com 1.10,2013-02-08 21:09:00,
2013-02-08 15:24:00,23.8,19.0,30.36,NE,47,1.0,5.0,81,0.00,,,0.00,weatherlink.com 1.10,2013-02-08 21:24:00,
2013-02-08 15:39:00,24.2,19.0,30.36,NNE,19,2.0,5.0,80,0.00,,,0.00,weatherlink.com 1.10,2013-02-08 21:39:00,
2013-02-08 15:54:00,24.2,19.0,30.36,NE,44,3.0,6.0,79,0.00,,,0.00,weatherlink.com 1.10,2013-02-08 21:54:00,
2013-02-08 16:09:00,24.4,19.0,30.36,NNE,26,0.0,4.0,79,0.00,,,0.00,weatherlink.com 1.10,2013-02-08 22:09:00,
2013-02-08 16:24:00,23.5,18.0,30.37,NE,53,3.0,4.0,78,0.00,,,0.00,weatherlink.com 1.10,2013-02-08 22:24:00,
2013-02-08 16:39:00,22.7,17.0,30.36,NE,46,1.0,3.0,80,0.00,,,0.00,weatherlink.com 1.10,2013-02-08 22:39:00,
2013-02-08 16:54:00,22.1,17.0,30.37,NE,36,0.0,2.0,80,0.00,,,0.00,weatherlink.com 1.10,2013-02-08 22:54:00,
2013-02-08 17:09:00,21.6,17.0,30.37,NW,320,0.0,2.0,81,0.00,,,0.00,weatherlink.com 1.10,2013-02-08 23:09:00,
2013-02-08 17:24:00,20.9,16.0,30.38,NW,306,0.0,2.0,82,0.00,,,0.00,weatherlink.com 1.10,2013-02-08 23:24:00,
2013-02-08 17:39:00,20.5,16.0,30.38,North,7,0.0,0.0,82,0.00,,,0.00,weatherlink.com 1.10,2013-02-08 23:39:00,
2013-02-08 17:55:00,19.8,15.0,30.38,North,356,0.0,0.0,83,0.00,,,0.00,weatherlink.com 1.10,2013-02-08 23:55:00,
2013-02-08 18:10:00,19.4,15.0,30.38,North,356,0.0,0.0,84,0.00,,,0.00,weatherlink.com 1.10,2013-02-09 00:10:00,
2013-02-08 18:25:00,18.5,15.0,30.38,North,356,0.0,0.0,85,0.00,,,0.00,weatherlink.com 1.10,2013-02-09 00:25:00,
2013-02-08 18:39:00,16.8,13.0,30.38,North,356,0.0,0.0,85,0.00,,,0.00,weatherlink.com 1.10,2013-02-09 00:39:00,
2013-02-08 18:55:00,16.4,13.0,30.38,North,356,0.0,0.0,86,0.00,,,0.00,weatherlink.com 1.10,2013-02-09 00:55:00,
2013-02-08 19:10:00,15.5,13.0,30.38,North,358,0.0,0.0,88,0.00,,,0.00,weatherlink.com 1.10,2013-02-09 01:10:00,
2013-02-08 19:25:00,14.7,12.0,30.39,North,358,0.0,0.0,88,0.00,,,0.00,weatherlink.com 1.10,2013-02-09 01:25:00,
2013-02-08 19:40:00,14.4,12.0,30.40,North,356,0.0,0.0,90,0.00,,,0.00,weatherlink.com 1.10,2013-02-09 01:40:00,
2013-02-08 19:55:00,14.6,12.0,30.39,North,356,0.0,0.0,90,0.00,,,0.00,weatherlink.com 1.10,2013-02-09 01:55:00,
2013-02-08 20:10:00,13.9,12.0,30.40,North,358,0.0,0.0,90,0.00,,,0.00,weatherlink.com 1.10,2013-02-09 02:10:00,
2013-02-08 20:25:00,13.3,11.0,30.40,North,358,0.0,0.0,90,0.00,,,0.00,weatherlink.com 1.10,2013-02-09 02:25:00,
2013-02-08 20:40:00,12.6,10.0,30.40,North,358,0.0,0.0,90,0.00,,,0.00,weatherlink.com 1.10,2013-02-09 02:40:00,
2013-02-08 20:55:00,11.7,9.0,30.40,North,358,0.0,0.0,90,0.00,,,0.00,weatherlink.com 1.10,2013-02-09 02:55:00,
2013-02-08 21:10:00,10.9,9.0,30.40,North,359,0.0,0.0,90,0.00,,,0.00,weatherlink.com 1.10,2013-02-09 03:10:00,
2013-02-08 21:25:00,10.3,8.0,30.41,North,358,0.0,0.0,90,0.00,,,0.00,weatherlink.com 1.10,2013-02-09 03:25:00,
2013-02-08 21:40:00,10.0,8.0,30.41,North,358,0.0,0.0,90,0.00,,,0.00,weatherlink.com 1.10,2013-02-09 03:40:00,
2013-02-08 21:55:00,9.2,7.0,30.41,North,358,0.0,0.0,90,0.00,,,0.00,weatherlink.com 1.10,2013-02-09 03:55:00,
2013-02-08 22:10:00,8.5,6.0,30.40,North,359,0.0,0.0,90,0.00,,,0.00,weatherlink.com 1.10,2013-02-09 04:10:00,
2013-02-08 22:25:00,8.0,6.0,30.41,North,359,0.0,0.0,90,0.00,,,0.00,weatherlink.com 1.10,2013-02-09 04:25:00,
2013-02-08 22:40:00,7.6,5.0,30.41,North,358,0.0,0.0,90,0.00,,,0.00,weatherlink.com 1.10,2013-02-09 04:40:00,
2013-02-08 22:55:00,7.4,5.0,30.41,North,359,0.0,0.0,90,0.00,,,0.00,weatherlink.com 1.10,2013-02-09 04:55:00,
2013-02-08 23:10:00,7.3,5.0,30.41,North,359,0.0,0.0,90,0.00,,,0.00,weatherlink.com 1.10,2013-02-09 05:10:00,
2013-02-08 23:25:00,6.8,5.0,30.41,North,359,0.0,0.0,90,0.00,,,0.00,weatherlink.com 1.10,2013-02-09 05:25:00,
2013-02-08 23:40:00,5.4,3.0,30.40,North,1,0.0,0.0,89,0.00,,,0.00,weatherlink.com 1.10,2013-02-09 05:40:00,
2013-02-08 23:55:00,4.5,2.0,30.40,North,1,0.0,0.0,89,0.00,,,0.00,weatherlink.com 1.10,2013-02-09 05:55:00,